Weather History for Ravenna, OH

Change the Weather History Date:

Saturday, March 2, 2013

  Actual Average (KCAK) Record (KCAK)
Temperature  
Mean Temperature 24 °F 33 °F  
Max Temperature 26 °F 41 °F 69 °F (1991)
Min Temperature 22 °F 24 °F -3 °F (1980)
Degree Days  
Heating Degree Days 41 32  
Month to date heating degree days 65  
Since 1 July heating degree days 4609  
Cooling Degree Days 0 0  
Month to date cooling degree days 0  
Year to date cooling degree days 0  
Moisture  
Dew Point 20 °F    
Average Humidity 83    
Maximum Humidity 88    
Minimum Humidity 75    
Precipitation  
Precipitation 0.00 in 0.08 in 0.61 in (2012)
Month to date precipitation 0.17  
Year to date precipitation 5.09  
Snow  
Snow 0.00 in 0.40 in - ()
Month to date snowfall 0.7  
Since 1 July snowfall 37.2  
Snow Depth -    
Sea Level Pressure  
Sea Level Pressure 29.94 in    
Wind  
Wind Speed 7 mph (NW)    
Max Wind Speed 13 mph    
Max Gust Speed 17 mph    
Visibility 8 miles    
Events Snow    
T = Trace of Precipitation, MM = Missing Value Source: NWS Daily Summary

Daily Weather History Graph

Daily Weather History Graph

Search for Another Location

Airport:

Trip Planner

Search our weather history database for the weather conditions in past years. The results will help you decide how hot, cold, wet, or windy it might be!

Date:

Astronomy

Mar. 02, 2013 Rise Set
Actual Time 6:57 AM EST 6:17 PM EST
Civil Twilight 6:29 AM EST 6:44 PM EST
Nautical Twilight 5:57 AM EST 7:16 PM EST
Astronomical Twilight 5:25 AM EST 7:48 PM EST
Moon 11:59 PM EST (3/2) 9:21 AM EST (3/2)
Length of Visible Light 12h 15m
Length of Day
11h 19m
Waning Gibbous, 74% of the Moon is Illuminated
Mar 2
Waning Gibbous
Mar 4
Last Quarter
Mar 11
New
Mar 19
First Quarter
Mar 27
Full

Hourly Weather History & Observations

Time (EST) Temp. Windchill Dew Point Humidity Pressure Visibility Wind Dir Wind Speed Gust Speed Precip Events Conditions
12:16 AM 25.3 °F 18.5 °F 21.7 °F 86% 29.96 in 7.0 mi NNW 5.8 mph - N/A Snow Light Snow
12:35 AM 25.2 °F 17.3 °F 20.8 °F 84% 29.96 in 10.0 mi NNW 6.9 mph - N/A   Overcast
12:56 AM 24.8 °F 19.1 °F 21.2 °F 86% 29.96 in 10.0 mi NW 4.6 mph - N/A   Overcast
1:16 AM 24.3 °F 16.3 °F 20.3 °F 85% 29.96 in 10.0 mi NNW 6.9 mph - N/A   Overcast
1:35 AM 23.9 °F 16.8 °F 20.1 °F 85% 29.96 in 10.0 mi NNW 5.8 mph - N/A   Overcast
1:56 AM 23.9 °F 16.8 °F 19.9 °F 85% 29.95 in 10.0 mi NNW 5.8 mph - N/A   Overcast
2:16 AM 23.9 °F 14.2 °F 19.6 °F 84% 29.95 in 10.0 mi NNW 9.2 mph - N/A Snow Light Snow
2:35 AM 23.9 °F 15.8 °F 19.9 °F 85% 29.95 in 10.0 mi NNW 6.9 mph - N/A   Overcast
2:56 AM 23.7 °F 15.6 °F 19.8 °F 85% 29.95 in 10.0 mi NW 6.9 mph - N/A Snow Light Snow
3:16 AM 23.5 °F 14.5 °F 19.9 °F 86% 29.94 in 10.0 mi NNW 8.1 mph - N/A   Overcast
3:35 AM 23.5 °F 17.6 °F 19.4 °F 84% 29.94 in 10.0 mi NNW 4.6 mph - N/A   Overcast
3:56 AM 23.4 °F 16.2 °F 19.4 °F 85% 29.94 in 7.0 mi NNW 5.8 mph - N/A Snow Light Snow
4:16 AM 23.4 °F 17.4 °F 19.4 °F 85% 29.94 in 5.0 mi NNW 4.6 mph - N/A Snow Light Snow
4:56 AM 23.2 °F 17.2 °F 19.6 °F 86% 29.94 in 5.0 mi NNW 4.6 mph - N/A Snow Light Snow
5:16 AM 23.4 °F 17.4 °F 19.4 °F 85% 29.94 in 7.0 mi NNW 4.6 mph - N/A Snow Light Snow
5:35 AM 23.2 °F 16.0 °F 19.4 °F 85% 29.94 in 7.0 mi NNW 5.8 mph - N/A Snow Light Snow
5:56 AM 23.0 °F 15.8 °F 19.4 °F 86% 29.94 in 4.0 mi North 5.8 mph - N/A Snow Light Snow
6:16 AM 23.0 °F 17.0 °F 19.0 °F 85% 29.94 in 5.0 mi North 4.6 mph - N/A Snow Light Snow
6:35 AM 22.8 °F 16.7 °F 19.2 °F 86% 29.94 in 4.0 mi NW 4.6 mph - N/A Snow Light Snow
6:56 AM 22.6 °F 16.5 °F 19.4 °F 87% 29.94 in 4.0 mi NW 4.6 mph - N/A Snow Light Snow
7:16 AM 22.8 °F 18.2 °F 19.4 °F 87% 29.94 in 3.0 mi NW 3.5 mph - N/A Snow Light Snow
7:35 AM 22.6 °F 16.5 °F 19.0 °F 86% 29.95 in 3.0 mi NW 4.6 mph - N/A Snow Light Snow
7:56 AM 23.0 °F 17.0 °F 19.2 °F 85% 29.95 in 5.0 mi NW 4.6 mph - N/A Snow Light Snow
8:16 AM 23.0 °F 14.7 °F 18.1 °F 82% 29.95 in 10.0 mi NNW 6.9 mph - N/A   Overcast
8:35 AM 23.5 °F 13.7 °F 17.6 °F 78% 29.95 in 10.0 mi NW 9.2 mph - N/A   Overcast
8:56 AM 23.4 °F 15.2 °F 19.0 °F 84% 29.95 in 2.5 mi North 6.9 mph - N/A Snow Light Snow
9:16 AM 24.4 °F 17.5 °F 18.1 °F 77% 29.95 in 10.0 mi North 5.8 mph - N/A   Overcast
9:35 AM 24.6 °F 16.7 °F 18.3 °F 77% 29.95 in 7.0 mi NW 6.9 mph - N/A Snow Light Snow
9:56 AM 25.7 °F 19.0 °F 18.9 °F 75% 29.95 in 7.0 mi North 5.8 mph - N/A Snow Light Snow
10:16 AM 26.2 °F 17.1 °F 19.2 °F 75% 29.94 in 3.0 mi NW 9.2 mph - N/A Snow Light Snow
10:36 AM 26.1 °F 19.4 °F 19.9 °F 78% 29.94 in 2.5 mi NNW 5.8 mph - N/A Snow Light Snow
10:56 AM 25.7 °F 17.1 °F 20.1 °F 79% 29.95 in 2.5 mi NW 8.1 mph - N/A Snow Light Snow
11:16 AM 25.5 °F 14.9 °F 19.4 °F 78% 29.95 in 4.0 mi North 11.5 mph 16.1 mph N/A Snow Light Snow
11:35 AM 26.1 °F 18.4 °F 19.9 °F 78% 29.95 in 5.0 mi NW 6.9 mph - N/A Snow Light Snow
11:56 AM 25.9 °F 16.6 °F 19.8 °F 78% 29.95 in 2.5 mi NNW 9.2 mph - N/A Snow Light Snow
12:16 PM 26.2 °F 17.8 °F 19.6 °F 76% 29.95 in 4.0 mi NNW 8.1 mph - N/A Snow Light Snow
12:35 PM 26.4 °F 17.3 °F 20.1 °F 77% 29.94 in 5.0 mi NNW 9.2 mph - N/A Snow Light Snow
12:56 PM 25.9 °F 14.8 °F 20.1 °F 79% 29.94 in 10.0 mi NW 12.7 mph 16.1 mph N/A   Overcast
1:16 PM 25.7 °F 15.1 °F 19.9 °F 79% 29.94 in 10.0 mi NW 11.5 mph - N/A   Overcast
1:35 PM 25.7 °F 16.4 °F 20.1 °F 79% 29.93 in 10.0 mi NNW 9.2 mph 17.3 mph N/A   Overcast
1:56 PM 25.7 °F 15.7 °F 20.3 °F 80% 29.93 in 10.0 mi NW 10.4 mph - N/A Snow Light Snow
2:16 PM 25.7 °F 16.4 °F 20.1 °F 79% 29.93 in 10.0 mi NNW 9.2 mph - N/A   Overcast
2:35 PM 25.7 °F 15.7 °F 20.1 °F 79% 29.93 in 10.0 mi NW 10.4 mph - N/A Snow Light Snow
2:56 PM 26.2 °F 16.4 °F 20.3 °F 78% 29.93 in 10.0 mi NW 10.4 mph - N/A Snow Light Snow
3:16 PM 26.4 °F 19.8 °F 20.7 °F 79% 29.93 in 10.0 mi NW 5.8 mph - N/A Snow Light Snow
3:35 PM 26.4 °F 20.9 °F 20.7 °F 79% 29.93 in 7.0 mi NW 4.6 mph - N/A Snow Light Snow
3:56 PM 26.2 °F 17.8 °F 20.3 °F 78% 29.93 in 7.0 mi NNW 8.1 mph - N/A Snow Light Snow
4:16 PM 26.6 °F 19.1 °F 21.0 °F 79% 29.93 in 7.0 mi NW 6.9 mph - N/A Snow Light Snow
4:35 PM 26.4 °F 18.9 °F 21.2 °F 81% 29.93 in 10.0 mi NW 6.9 mph - N/A Snow Light Snow
4:56 PM 26.4 °F 18.9 °F 21.2 °F 81% 29.93 in 10.0 mi NW 6.9 mph - N/A Snow Light Snow
5:16 PM 26.2 °F 17.8 °F 21.2 °F 81% 29.93 in 10.0 mi NW 8.1 mph - N/A Snow Light Snow
5:35 PM 26.2 °F 18.6 °F 21.7 °F 83% 29.93 in 10.0 mi NW 6.9 mph - N/A Snow Light Snow
5:56 PM 26.2 °F 17.8 °F 21.9 °F 84% 29.94 in 7.0 mi WNW 8.1 mph - N/A Snow Light Snow
6:35 PM 26.1 °F 19.4 °F 22.1 °F 85% 29.95 in 10.0 mi NW 5.8 mph - N/A Snow Light Snow
6:56 PM 26.1 °F 18.4 °F 22.6 °F 87% 29.95 in 10.0 mi WNW 6.9 mph - N/A Snow Light Snow
7:16 PM 26.1 °F 20.5 °F 23.0 °F 88% 29.95 in 7.0 mi NW 4.6 mph - N/A Snow Light Snow
7:35 PM 26.1 °F 16.2 °F 22.8 °F 88% 29.95 in 10.0 mi NNW 10.4 mph - N/A   Overcast
7:56 PM 26.1 °F 17.6 °F 22.6 °F 87% 29.95 in 10.0 mi NW 8.1 mph - N/A   Overcast
8:16 PM 25.7 °F 17.1 °F 22.6 °F 88% 29.95 in 10.0 mi NNW 8.1 mph - N/A Snow Light Snow
8:35 PM 25.7 °F 15.7 °F 21.7 °F 85% 29.95 in 10.0 mi NNW 10.4 mph - N/A   Overcast
8:56 PM 25.7 °F 19.0 °F 22.1 °F 86% 29.95 in 10.0 mi NNW 5.8 mph - N/A Snow Light Snow
9:16 PM 25.7 °F 16.4 °F 22.3 °F 87% 29.96 in 10.0 mi NW 9.2 mph - N/A Snow Light Snow
9:35 PM 25.5 °F 17.8 °F 21.9 °F 86% 29.96 in 7.0 mi NW 6.9 mph - N/A Snow Light Snow
9:55 PM 25.5 °F 17.8 °F 21.7 °F 86% 29.96 in 10.0 mi NW 6.9 mph - N/A Snow Light Snow
10:16 PM 25.5 °F 17.8 °F 21.9 °F 86% 29.95 in 7.0 mi NW 6.9 mph - N/A Snow Light Snow
10:36 PM 25.3 °F 16.7 °F 21.9 °F 87% 29.95 in 7.0 mi NW 8.1 mph - N/A Snow Light Snow
10:55 PM 25.2 °F 16.5 °F 21.6 °F 86% 29.95 in 7.0 mi NW 8.1 mph - N/A Snow Light Snow
11:16 PM 24.8 °F 16.9 °F 21.4 °F 87% 29.95 in 7.0 mi NW 6.9 mph - N/A Snow Light Snow
11:35 PM 24.8 °F 16.1 °F 21.2 °F 86% 29.95 in 10.0 mi NW 8.1 mph - N/A Snow Light Snow
11:56 PM 24.8 °F 17.9 °F 21.0 °F 86% 29.95 in 10.0 mi NW 5.8 mph - N/A Snow Light Snow